FW2611 Weather Reports


Display with metric or nautical units.
time (UTC)temp
F
wind
direction
speed
MPH
gust
MPH
rain 1hr
in
rain 24hr
in
rain mn
in
humidity
%
barometer
mb
20260508023010 53 227 5.0 11.0 0.00 0.06 0.06 84 1010.8
20260508021519 53 219 5.0 11.0 0.00 0.06 0.06 82 1010.8
20260508020020 53 215 4.0 9.0 0.00 0.06 0.06 81 1010.7
20260508014525 53 211 6.0 11.0 0.00 0.06 0.06 80 1010.6
20260508013008 53 209 4.0 9.0 0.00 0.06 0.06 80 1010.6
20260508011512 53 211 3.0 10.0 0.00 0.06 0.06 81 1010.3
20260508010016 53 210 6.0 11.0 0.00 0.06 0.06 81 1010.2
20260508004536 53 208 5.0 11.0 0.00 0.06 0.06 81 1010.1
20260508003025 53 211 4.0 13.0 0.00 0.06 0.06 80 1009.9
20260508001524 53 194 6.0 12.0 0.00 0.06 0.06 79 1009.5
20260508000013 54 200 7.0 12.0 0.00 0.06 0.06 78 1009.7
20260507234514 54 167 7.0 13.0 0.00 0.06 0.06 77 1009.9
20260507233020 56 162 3.0 13.0 0.00 0.06 0.06 77 1009.5
20260507231523 56 181 9.0 15.0 0.00 0.06 0.06 74 1009.6
20260507230010 58 203 7.0 12.0 0.00 0.06 0.06 72 1009.3
20260507224514 59 173 5.0 15.0 0.00 0.06 0.06 73 1009.1
20260507223018 58 192 7.0 16.0 0.00 0.06 0.06 73 1009.2
20260507221524 56 167 4.0 16.0 0.00 0.06 0.06 76 1009.2
20260507220024 56 159 3.0 17.0 0.00 0.06 0.06 76 1009.3
20260507214509 56 170 8.0 16.0 0.00 0.06 0.06 75 1009.6
20260507213022 56 177 8.0 16.0 0.00 0.06 0.06 75 1009.4
20260507211518 56 188 7.0 15.0 0.00 0.06 0.06 75 1009.4
20260507210027 56 143 8.0 14.0 0.00 0.06 0.06 74 1009.2
20260507204528 58 192 8.0 13.0 0.00 0.06 0.06 70 1009.0
20260507203039 61 161 7.0 15.0 0.00 0.06 0.06 66 1009.0
20260507201516 61 169 6.0 12.0 0.00 0.06 0.06 66 1009.1
20260507200020 60 208 4.0 11.0 0.00 0.06 0.06 68 1009.1
20260507194529 59 167 6.0 12.0 0.00 0.06 0.06 71 1009.0
20260507193028 60 162 4.0 11.0 0.00 0.06 0.06 63 1009.6
20260507191532 59 163 7.0 13.0 0.00 0.06 0.06 64 1009.7
20260507190019 60 170 6.0 13.0 0.00 0.06 0.06 66 1009.9
20260507184524 60 115 7.0 12.0 0.00 0.06 0.06 66 1009.9
20260507183011 61 156 3.0 10.0 0.00 0.06 0.06 64 1009.6
20260507181512 61 109 3.0 8.0 0.00 0.06 0.06 60 1009.8
20260507180018 61 161 4.0 8.0 0.00 0.06 0.06 59 1010.2
20260507174534 62 134 4.0 9.0 0.00 0.07 0.06 58 1010.2
20260507173011 61 168 3.0 6.0 0.00 0.07 0.06 58 1010.7
20260507171513 60 254 1.0 6.0 0.00 0.07 0.06 58 1010.8
20260507170014 59 29 1.0 4.0 0.00 0.07 0.06 60 1010.9
20260507164519 58 296 0.0 6.0 0.00 0.07 0.06 63 1011.3
20260507163026 57 351 3.0 5.0 0.00 0.07 0.06 63 1011.6
20260507161508 57 352 4.0 6.0 0.00 0.07 0.06 64 1011.7
20260507160012 57 352 4.0 9.0 0.00 0.07 0.06 64 1011.7
20260507154514 57 15 7.0 11.0 0.00 0.07 0.06 64 1011.9
20260507153021 57 317 7.0 12.0 0.00 0.07 0.06 64 1012.2
20260507151522 57 351 6.0 11.0 0.00 0.07 0.06 64 1012.2
20260507150006 56 345 6.0 11.0 0.00 0.07 0.06 65 1012.1
20260507144512 56 352 9.0 14.0 0.00 0.07 0.06 62 1012.3
20260507143016 56 345 9.0 15.0 0.00 0.07 0.06 62 1012.3
20260507141521 56 330 6.0 14.0 0.00 0.07 0.06 64 1012.6
20260507140025 56 327 8.0 15.0 0.00 0.07 0.06 65 1012.6
20260507134508 56 348 8.0 15.0 0.00 0.07 0.06 69 1012.5
20260507133017 55 351 8.0 14.0 0.00 0.07 0.06 70 1012.4
20260507131519 54 9 4.0 11.0 0.00 0.07 0.06 73 1012.5
20260507130023 53 318 6.0 15.0 0.00 0.07 0.06 74 1012.5
20260507124528 53 34 5.0 12.0 0.00 0.07 0.06 75 1012.3
20260507123014 53 342 6.0 13.0 0.00 0.07 0.06 76 1012.4
20260507121517 53 9 9.0 13.0 0.00 0.07 0.06 75 1012.2
20260507120005 53 352 8.0 15.0 0.00 0.07 0.06 77 1012.3
20260507114505 53 337 4.0 10.0 0.00 0.07 0.06 79 1011.9
20260507113012 53 336 6.0 13.0 0.00 0.07 0.06 80 1011.9
20260507111514 53 318 5.0 12.0 0.00 0.07 0.06 81 1012.1
20260507110018 52 322 5.0 12.0 0.00 0.07 0.06 82 1012.0
20260507104506 52 25 6.0 15.0 0.00 0.07 0.06 83 1011.7
20260507103007 52 11 7.0 15.0 0.00 0.07 0.06 84 1011.5
20260507101512 52 349 3.0 15.0 0.00 0.07 0.06 85 1011.4
20260507100021 53 5 6.0 11.0 0.00 0.07 0.06 85 1010.9
20260507094523 53 314 5.0 13.0 0.00 0.07 0.06 85 1010.8
20260507093006 53 352 7.0 14.0 0.00 0.07 0.06 85 1010.4
20260507091513 53 328 8.0 17.0 0.00 0.07 0.06 85 1010.7
20260507090013 53 315 9.0 15.0 0.00 0.07 0.06 85 1010.5
20260507084520 53 319 9.0 16.0 0.00 0.07 0.06 84 1010.3
20260507083024 53 10 11.0 24.0 0.01 0.07 0.06 83 1010.2
20260507081508 55 352 11.0 20.0 0.01 0.07 0.06 88 1009.9
20260507080012 55 334 10.0 14.0 0.02 0.07 0.06 88 1009.5
20260507074514 55 350 11.0 18.0 0.06 0.07 0.06 88 1009.2
20260507073020 56 332 10.0 16.0 0.05 0.06 0.05 88 1009.3
20260507071525 56 313 9.0 19.0 0.05 0.06 0.05 88 1009.3
20260507070040 58 14 13.0 22.0 0.04 0.05 0.04 84 1008.9
20260507064514 61 329 6.0 10.0 0.00 0.01 0.00 91 1008.8
20260507063017 60 319 4.0 8.0 0.00 0.01 0.00 92 1008.7
20260507061523 59 245 1.0 3.0 0.00 0.01 0.00 90 1008.5
20260507060027 58 244 3.0 8.0 0.00 0.01 0.00 90 1008.9
20260507054526 58 215 2.0 8.0 0.00 0.01 0.00 90 1009.0
20260507053014 58 237 0.0 1.0 0.00 0.01 0.00 90 1008.5
20260507051503 58 237 0.0 4.0 0.00 0.01 0.00 91 1008.4
20260507050015 57 217 1.0 5.0 0.00 0.01 0.00 91 1009.1
20260507044507 57 219 2.0 8.0 0.00 0.01 0.00 90 1009.0
20260507043014 57 211 4.0 9.0 0.00 0.01 0.00 90 1009.0
20260507041518 57 231 6.0 11.0 0.00 0.01 0.00 90 1009.2
20260507040002 57 227 5.0 10.0 0.00 0.01 0.00 90 1009.2
20260507034505 56 200 5.0 10.0 0.00 0.01 0.01 91 1009.4
20260507033008 56 182 3.0 9.0 0.00 0.01 0.01 90 1009.3
20260507031513 57 192 3.0 8.0 0.00 0.01 0.01 90 1008.9
20260507030018 57 209 1.0 6.0 0.00 0.01 0.01 90 1009.2
20260507024508 57 207 4.0 7.0 0.00 0.01 0.01 90 1009.5